This is the latest recevied weather packets stored in our database for station/object N4MGC. If no packets are shown the sender has not sent any weather packets the latest 10 day(s).
| Time | Temp. | Humidity | Pressure | Rain* | Wind** | Luminosity | Snow |
|---|---|---|---|---|---|---|---|
| 1777651058 | 15° C | 81% | 1016 hPa | 0 mm | - | 181 W/m² | - |
| 1777650755 | 15° C | 79% | 1015.6 hPa | 0 mm | - | 173 W/m² | - |
| 1777650149 | 15° C | 83% | 1015.9 hPa | 0 mm | - | 168 W/m² | - |
| 1777649846 | 15° C | 81% | 1015.8 hPa | 0 mm | - | 153 W/m² | - |
| 1777649543 | 14.44° C | 83% | 1016 hPa | 0 mm | - | 135 W/m² | - |
| 1777649240 | 14.44° C | 82% | 1015.9 hPa | 0 mm | - | 130 W/m² | - |
| 1777648937 | 14.44° C | 83% | 1015.8 hPa | 0 mm | - | 138 W/m² | - |
| 1777648634 | 13.89° C | 85% | 1015.8 hPa | 0 mm | - | 149 W/m² | - |
| 1777648330 | 13.89° C | 85% | 1015.9 hPa | 0 mm | - | 133 W/m² | - |
| 1777648027 | 13.89° C | 85% | 1015.9 hPa | 0 mm | - | 115 W/m² | - |
| 1777647723 | 13.89° C | 85% | 1016 hPa | 0 mm | - | 100 W/m² | - |
| 1777647419 | 13.89° C | 88% | 1015.6 hPa | 0 mm | - | 90 W/m² | - |
| 1777647117 | 13.33° C | 88% | 1016.1 hPa | 0 mm | - | 90 W/m² | - |
| 1777646813 | 13.33° C | 89% | 1015.8 hPa | 0 mm | - | 89 W/m² | - |
| 1777646204 | 13.33° C | 88% | 1015.6 hPa | 0 mm | - | 78 W/m² | - |
| 1777645902 | 13.33° C | 87% | 1015.6 hPa | 0 mm | - | 68 W/m² | - |
| 1777645599 | 13.33° C | 89% | 1015.6 hPa | 0 mm | - | 72 W/m² | - |
| 1777645295 | 12.78° C | 89% | 1015.4 hPa | 0 mm | - | 76 W/m² | - |
| 1777644991 | 12.78° C | 89% | 1015.3 hPa | 0 mm | - | 74 W/m² | - |
| 1777644689 | 12.78° C | 89% | 1015.2 hPa | 0 mm | - | 74 W/m² | - |
| 1777644384 | 12.78° C | 90% | 1015.4 hPa | 0 mm | - | 67 W/m² | - |
| 1777644082 | 12.78° C | 91% | 1015.2 hPa | 0 mm | - | 66 W/m² | - |
| 1777643778 | 12.78° C | 91% | 1015.4 hPa | 0 mm | - | 62 W/m² | - |
| 1777643476 | 12.78° C | 91% | 1015.2 hPa | 0 mm | - | 58 W/m² | - |
| 1777643172 | 12.22° C | 92% | 1015.4 hPa | 0 mm | - | 58 W/m² | - |
* Rain latest hour (hover to see other rain measurements)
** Current wind speed in m/s (hover to see current wind gust speed)